Regional Weather Roundup
Issued by NWS Boston, MA

Home | Current Version | Previous Version | Text Only | Print | Product List | Glossary On
Versions: 1 2 3 4 5 6 7 8 9 10 11 12 13 14 15 16 17 18 19 20 21 22 23 24 25 26 27 28 29 30 31 32 33 34 35 36 37 38 39 40 41 42 43 44 45 46 47 48 49 50
000
ASUS41 KBOX 251510
RWRBOX

REGIONAL WEATHER ROUNDUP
NATIONAL WEATHER SERVICE TAUNTON MA
1100 AM EDT THU AUG 25 2016

NOTE:  "FAIR" INDICATES FEW OR NO CLOUDS BELOW 12,000 FEET WITH NO
SIGNIFICANT WEATHER AND/OR OBSTRUCTIONS TO VISIBILITY.

MAZALL-251600-
EASTERN MASSACHUSETTS

CITY           SKY/WX    TMP DP  RH WIND       PRES   REMARKS
BOSTON         PTSUNNY   83  63  50 SW20      30.06F
BEVERLY        PTSUNNY   82  65  56 W13G21    30.05F
LAWRENCE       SUNNY     82  66  58 SW13G28   30.06F
BEDFORD        MOSUNNY   82  62  50 SW15G21   30.05F
BLUE HILL        N/A     80  62  54 SW15G22   30.08F
NORWOOD        SUNNY     82  63  52 S13       30.07F
MARSHFIELD     SUNNY     82  64  54 SW18G24   30.07F
PLYMOUTH       MOSUNNY   80  62  54 SW18G24   30.10F
TAUNTON        SUNNY     80  64  58 S13       30.09F
NEW BEDFORD    SUNNY     81  64  56 SW13G21   30.10F
$$

MAZALL-251600-
CAPE COD AND THE ISLANDS

CITY           SKY/WX    TMP DP  RH WIND       PRES   REMARKS
FALMOUTH       MOSUNNY   81  64  57 SW20      30.13
HYANNIS        MOSUNNY   80  67  64 SW20      30.10F
CHATHAM        SUNNY     78  69  73 SW13G18   30.14F
PROVINCETOWN   SUNNY     78  67  68 SW15G23   30.11F
NANTUCKET      SUNNY     75  67  76 S14       30.14F
MARTHAS VNYRD  PTSUNNY   79  68  69 SW15      30.13F
$$

MAZALL-251600-
CENTRAL AND WESTERN MASSACHUSETTS

CITY           SKY/WX    TMP DP  RH WIND       PRES   REMARKS
WORCESTER      SUNNY     76  62  62 SW17G26   30.10F
FITCHBURG      SUNNY     82  64  54 W9G21     30.07F
ORANGE         MOSUNNY   79  65  62 S12       30.06F
SPRINGFIELD    PTSUNNY   80  65  60 S12G20    30.06F
WESTFIELD      MOSUNNY   81  66  60 S16       30.06F
NORTH ADAMS    CLOUDY    76  65  68 CALM      30.04F
PITTSFIELD     CLOUDY    74  64  71 S10       30.06F
$$

RIZALL-251600-
RHODE ISLAND

CITY           SKY/WX    TMP DP  RH WIND       PRES   REMARKS
PROVIDENCE     PTSUNNY   81  62  52 W16G24    30.10F
NEWPORT        SUNNY     77  66  68 SW10G21   30.12F
BLOCK ISLAND     N/A     77  68  73 SW14      30.13
SMITHFIELD     SUNNY     79  65  62 VRB7      30.10F
WESTERLY       SUNNY     79  63  57 SW13G20   30.13F
$$

CTZALL-251600-
CONNECTICUT

CITY           SKY/WX    TMP DP  RH WIND       PRES   REMARKS
BRADLEY INTL   PTSUNNY   80  64  58 SW12G21   30.08F
HARTFORD       SUNNY     82  66  58 S8        30.08F
BRIDGEPORT     SUNNY     79  66  64 SW9       30.10F
DANBURY        MOSUNNY   77  65  66 S10       30.10F
GROTON         SUNNY     80  67  64 SW12      30.11F
NEW HAVEN      PTSUNNY   76  66  71 S8        30.11F
CHESTER          N/A     77  64  65 S9G16     30.12F
MERIDEN        SUNNY     81  63  54 S15       30.09F
WILLIMANTIC    SUNNY     80  66  62 SW10      30.10F
OXFORD         PTSUNNY   75  63  64 SW9G16    30.14F
$$

MEZ002-015-021-024-NHZ003-005-008-011-012-014-VTZ005-008-251600-
NORTHERN NEW ENGLAND

CITY           SKY/WX    TMP DP  RH WIND       PRES   REMARKS
PORTLAND ME    MOSUNNY   79  64  60 S9        30.02F
BANGOR ME      PTSUNNY   77  65  66 S12       29.98F
CONCORD NH     MOSUNNY   82  64  54 SW9       30.03F
MANCHESTER NH  PTSUNNY   81  64  56 S10       30.02F
NASHUA NH      SUNNY     81  67  62 VRB5      30.05F
PORTSMOUTH NH  PTSUNNY   82  65  56 SW12      30.02F
JAFFREY NH     SUNNY     78  63  59 S9G17     30.08F
KEENE NH       MOSUNNY   77  65  66 SW8       30.05F
BURLINGTON VT  CLOUDY    73  62  68 S13G21    29.95F
MT. WASHINGTON FOG       55  55 100 SW29        N/A  VSB 1/16
$$

NYZ052-076-251600-
EASTERN NEW YORK

CITY           SKY/WX    TMP DP  RH WIND       PRES   REMARKS
ALBANY         CLOUDY    74  64  71 S16G22    30.02F
NEW YORK CITY  PTSUNNY   82  61  48 SW13G21   30.09F
$$

ANZALL-251600-
MARINE OBSERVATIONS

STATION/POSITION TIME  TEMP    WIND        PRES    VSBY  WAVE
                       AIR SEA DIR/SP/G                  HT/PER
                 (UTC) (F)     (DEG/KT/KT) (MB)    (MI)  (FT/S)
BOSTON BUOY      1450   72 68  180/  8/ 10 1018.5F         1/10
BUZZARDS BAY     1400   71     230/ 13/ 14 1021.0S
NANTUCKET SOUND  1450   74 74  220/ 14/ 16 1020.2F         1/ 3
MASS BAY-STELLWA 1404   69 66  200/ 12/ 14 1018.4F  1 7/8  2/ 3
ISLE OF SHOALS   1400   70     200/ 20/ 20 1017.4F
S OF BLOCK IS    1425      74                N/A           3/ 5
$$

......................KEY.........................
  SKY/WX - SKY CONDITION/PRESENT WEATHER
  TMP    - TEMPERATURE IN FAHRENHEIT
  DWPT   - DEWPOINT IN FAHRENHEIT
  RH     - RELATIVE HUMIDITY IN PERCENT
  WIND   - DIRECTION AND SPEED IN MPH
  PRES   - MEAN SEA LEVEL PRESSURE IN INCHES OF HG
  WCI    - WIND CHILL INDEX
  VSB    - VISIBILITY IN MILES
  HX     - HEAT INDEX
  TC     - TEMPERATURE IN CELSIUS
  VRB    - VARIABLE WIND DIRECTION
  N/A    - NOT AVAILABLE



USA.gov is the U.S. government's official web portal to all federal, state and local government web resources and services.